Location: Krakow
(50.0830°N, 19.9170°E)
Time: 12:05:46
(UTC+01:00)

Vanguard 2 Rocket - All Passes

Search period start: 15 March 2026 00:00
Search period end: 25 March 2026 00:00
Orbit: 553 x 3286 km, 32.9° (Epoch: 14 March)

Date Brightness Start Highest point End Pass type
(mag) Time Alt. Az. Time Alt. Az. Time Alt. Az.
15 Mar - 05:07:03 10° SSW 05:15:13 28° SSE 05:27:18 10° ESE visible
15 Mar - 07:17:21 10° WSW 07:28:25 39° S 07:44:38 10° ESE daylight
15 Mar - 09:30:03 10° WSW 09:42:59 34° SSW 09:59:23 10° SE daylight
15 Mar - 11:46:31 10° WSW 11:57:16 19° SW 12:08:49 10° S daylight
16 Mar - 04:04:09 10° S 04:10:19 20° SE 04:18:47 10° ESE visible
16 Mar - 06:13:01 10° SW 06:22:31 36° SSE 06:36:59 10° ESE daylight
16 Mar - 08:24:41 10° WSW 08:36:33 37° S 08:52:56 10° SE daylight
16 Mar - 10:39:04 10° WSW 10:51:03 25° SSW 11:05:00 10° SSE daylight
17 Mar - 03:03:17 10° SSE 03:05:51 11° SE 03:08:45 10° ESE visible
17 Mar - 05:09:11 10° SW 05:17:05 30° SSE 05:29:04 10° ESE visible
17 Mar - 07:19:51 10° WSW 07:30:20 37° S 07:45:52 10° ESE daylight
17 Mar - 09:32:51 10° WSW 09:44:43 29° SSW 09:59:49 10° SSE daylight
17 Mar - 11:51:26 10° WSW 11:58:41 14° SW 12:06:25 10° SSW daylight
18 Mar - 04:05:58 10° SSW 04:12:08 22° SSE 04:20:57 10° ESE visible
18 Mar - 06:15:28 10° SW 06:24:29 35° S 06:38:24 10° ESE daylight
18 Mar - 08:27:23 10° WSW 08:38:25 33° SSW 08:53:41 10° SE daylight
18 Mar - 10:42:40 10° WSW 10:52:38 19° SW 11:04:10 10° S daylight
19 Mar - 03:03:55 10° S 03:07:37 14° SE 03:12:11 10° ESE visible
19 Mar - 05:11:31 10° SW 05:19:04 31° SSE 05:30:42 10° ESE visible
19 Mar - 07:22:30 10° WSW 07:32:19 34° S 07:46:53 10° SE daylight
19 Mar - 09:35:59 10° WSW 09:46:28 24° SSW 09:59:43 10° SSE daylight
20 Mar - 04:08:05 10° SSW 04:14:06 24° SSE 04:22:55 10° ESE visible
20 Mar - 06:18:04 10° WSW 06:26:33 33° S 06:39:39 10° ESE daylight
20 Mar - 08:30:19 10° WSW 08:40:20 28° SSW 08:54:04 10° SSE daylight
20 Mar - 10:47:34 10° WSW 10:54:17 14° SW 11:01:46 10° SSW daylight
21 Mar - 03:05:27 10° S 03:09:32 16° SSE 03:14:50 10° ESE visible
21 Mar - 05:14:02 10° SW 05:21:10 30° S 05:32:13 10° ESE daylight
21 Mar - 07:25:19 10° WSW 07:34:23 30° S 07:47:38 10° SE daylight
21 Mar - 09:39:42 10° WSW 09:48:17 18° SSW 09:58:47 10° S daylight
22 Mar - 04:10:25 10° SSW 04:16:11 24° SSE 04:24:44 10° ESE visible
22 Mar - 06:20:48 10° WSW 06:28:42 30° S 06:40:44 10° SE daylight
22 Mar - 08:33:35 10° WSW 08:42:19 22° SSW 08:53:54 10° SSE daylight
23 Mar - 03:07:25 10° SSW 03:11:35 17° SSE 03:17:08 10° ESE visible
23 Mar - 05:16:41 10° SW 05:23:22 28° S 05:33:36 10° SE daylight
23 Mar - 07:28:22 10° WSW 07:36:29 25° SSW 07:48:01 10° SSE daylight
23 Mar - 09:44:53 10° SW 09:50:10 13° SSW 09:56:09 10° SSW daylight
24 Mar - 04:12:56 10° SW 04:18:24 24° SSE 04:26:25 10° ESE visible
24 Mar - 06:23:43 10° WSW 06:30:55 26° S 06:41:32 10° SE daylight
24 Mar - 08:37:32 10° WSW 08:44:21 17° SSW 08:52:53 10° S daylight
